Overview Statistics Trail Chart Weather Telemetry Raw packets
 

This is the latest recevied weather packets stored in our database for station/object W6MAF. If no packets are shown the sender has not sent any weather packets the latest 10 day(s).

<< 79 80 81 82 83 84 85 >>
Time Temp. Humidity Pressure Rain* Wind** Luminosity Snow
1788094350 18.89° C 47% - 0 mm 4.02 m/s, 229° - -
1788094052 18.89° C 47% - 0 mm 4.02 m/s, 226° - -
1788093755 18.89° C 47% - 0 mm 3.58 m/s, 217° - -
1788093453 18.89° C 47% - 0 mm 3.58 m/s, 219° - -
1788093156 18.89° C 46% - 0 mm 3.13 m/s, 226° - -
1788092858 18.89° C 46% - 0 mm 3.13 m/s, 218° - -
1788092560 18.89° C 46% - 0 mm 2.24 m/s, 221° - -
1788092262 18.89° C 46% - 0 mm 2.68 m/s, 226° - -
1788091970 18.89° C 46% - 0 mm 2.68 m/s, 233° - -
1788091664 18.89° C 47% - 0 mm 3.13 m/s, 224° - -
1788091366 18.89° C 47% - 0 mm 3.13 m/s, 232° - -
1788091068 18.89° C 46% - 0 mm 3.13 m/s, 236° - -
1788090771 18.89° C 45% - 0 mm 2.68 m/s, 225° - -
1788090473 18.89° C 45% - 0 mm 2.68 m/s, 240° - -
1788090175 18.89° C 45% - 0 mm 3.13 m/s, 240° - -
1788089875 19.44° C 44% - 0 mm 2.24 m/s, 243° - -
1788089577 19.44° C 44% - 0 mm 3.58 m/s, 238° - -
1788089280 19.44° C 43% - 0 mm 3.13 m/s, 217° - -
1788088981 19.44° C 43% - 0 mm 2.24 m/s, 233° - -
1788088684 19.44° C 43% - 0 mm 1.34 m/s, 235° - -
1788088386 19.44° C 43% - 0 mm 2.68 m/s, 256° - -
1788088085 19.44° C 43% - 0 mm 2.24 m/s, 242° - -
1788087788 19.44° C 43% - 0 mm 2.24 m/s, 239° - -
1788087490 19.44° C 43% - 0 mm 2.68 m/s, 260° - -
1788087192 19.44° C 43% - 0 mm 2.68 m/s, 233° - -

* Rain latest hour (hover to see other rain measurements)
** Current wind speed in m/s (hover to see current wind gust speed)